Regional Weather Roundup
Issued by NWS

Home | Current Version | Previous Version | Graphics & Text | Print | Product List | Glossary On
Versions: 1 2 3 4 5 6 7 8 9 10 11 12 13 14 15 16 17 18 19 20 21 22 23 24 25 26 27 28 29 30 31 32 33 34 35 36 37 38 39 40 41 42 43 44 45 46 47 48 49 50
000
ASUS43 KLOT 091708
RWRIL

ILLINOIS REGIONAL WEATHER ROUNDUP
NATIONAL WEATHER SERVICE CHICAGO/ROMEOVILLE IL
1100 AM CST FRI DEC 09 2016

NOTE: "FAIR" INDICATES FEW OR NO CLOUDS BELOW 12,000 FEET WITH NO
SIGNIFICANT WEATHER AND/OR OBSTRUCTIONS TO VISIBILITY.

* THESE STATIONS ARE NOT UNDER NWS QUALITY CONTROL. THEY ALSO MAY NOT
  REPORT WEATHER SUCH AS PRECIPITATION OR FOG.

ILZ001-002-007-009-015-016-024-091800-
NORTHWEST ILLINOIS

CITY           SKY/WX    TMP DP  RH WIND       PRES   REMARKS
MOLINE         SUNNY     23  13  65 W8        30.60F WCI  14
STERLING*      SUNNY     23  17  78 NW8       30.58S WCI  14
SAVANNA*       SUNNY     24  15  68 NW7       30.57F WCI  16
$$

ILZ003-004-008-010-011-017-018-091800-
NORTH CENTRAL ILLINOIS

CITY           SKY/WX    TMP DP  RH WIND       PRES   REMARKS
ROCKFORD       FLURRIES  24  15  68 W10       30.56F WCI  14
FREEPORT*      CLOUDY    23  14  69 W10       30.56F WCI  12
ROCHELLE*      CLOUDY    23  12  64 W8G16     30.56S WCI  14
DE KALB*       MOSUNNY   23  15  71 NW10      30.53F WCI  12
$$

ILZ005-006-012>014-019>023-091800-
NORTHEAST ILLINOIS

CITY           SKY/WX    TMP DP  RH WIND       PRES   REMARKS
CHICAGO-OHARE  FLURRIES  24  16  71 W10       30.52F WCI  14
CHICAGO-MIDWAY FLURRIES  26  14  60 W10       30.53F WCI  16
AURORA         PTSUNNY   24  17  74 W12       30.54F WCI  13
LANSING*       CLOUDY    26  16  65 W8        30.53F WCI  17
JOLIET*        CLOUDY    26  18  70 W9        30.55F WCI  17
WAUKEGAN       CLOUDY    25  12  58 NW8       30.50F WCI  16
DUPAGE AIRPORT FLURRIES  24  14  65 W12       30.52F WCI  13
KANKAKEE*      CLOUDY    25  17  71 W10       30.56F WCI  15
WHEELING       CLOUDY    24  13  62 W7        30.53F WCI  16
MORRIS*        CLOUDY    24  18  75 W8        30.55F WCI  15
ROMEOVILLE*    CLOUDY    24  18  75 NW12      30.54F WCI  13
NORTHERLY ISL    N/A     26  15  63 W7          N/A  WCI  19
$$

LMZ740>746-091800-
SOUTHERN LAKE MICHIGAN

STATION/POSITION SKY/WX   TEMP    WIND        PRES    VSBY  WAVE
                          AIR SEA DIR/SP/G                  HT/PER
                          (F)     (DEG/KT/KT) (MB)    (MI)  (FT/S)
HARRISON CRIB              25     290/ 16/ 19   N/A
BURNHAM HARBOR             26     300/ 11/ 13   N/A
CALUMET HARBOR             25     250/  6/ 10 1033.1F
BURNS HARBOR               27     290/ 14/ 19 1033.9R
$$

ILZ025>027-034>036-040-047-049-050-058-095>099-091800-
WEST-CENTRAL ILLINOIS

CITY           SKY/WX    TMP DP  RH WIND       PRES   REMARKS
QUINCY         CLOUDY    20  13  74 NW7       30.63S WCI  11
GALESBURG*     MOSUNNY   21  14  74 W9        30.59F WCI  11
MACOMB*        CLOUDY    21  13  70 NW7       30.63F WCI  13
JACKSONVILLE*  CLOUDY    22  13  66 W8        30.62F WCI  13
PITTSFIELD*    FLURRIES  21  14  74 NW8       30.63F WCI  12
$$

ILZ028>032-037-038-041>044-048-051>054-059>061-091800-
CENTRAL ILLINOIS

CITY           SKY/WX    TMP DP  RH WIND       PRES   REMARKS
PONTIAC        CLOUDY    26  18  71 W12       30.58F WCI  15
BLOOMINGTON    PTSUNNY   24  14  65 W10       30.57F WCI  14
DECATUR        CLOUDY    24  15  68 NW8       30.59F WCI  15
PEORIA         MOSUNNY   26  14  60 NW12      30.60F WCI  16
LACON*         CLOUDY    23  14  68 W7        30.59F WCI  15
LINCOLN*       CLOUDY    25  13  62 NW3       30.60F
SPRINGFIELD    CLOUDY    24  14  65 NW9       30.62F WCI  14
TAYLORVILLE    FLURRIES  23  14  69 CALM      30.61S
$$

ILZ033-039-045-046-055>057-062-063-091800-
EAST-CENTRAL ILLINOIS

CITY           SKY/WX    TMP DP  RH WIND       PRES   REMARKS
CHAMPAIGN      PTSUNNY   25  12  58 NW8       30.58F WCI  16
RANTOUL*       CLOUDY    27  17  65 W10       30.56F WCI  18
MATTOON        CLOUDY    25  12  58 W7        30.58F WCI  17
PARIS*         CLOUDY    26  15  64 NW10      30.59F WCI  15
$$

ILZ079-100>102-091800-
SOUTHWEST ILLINOIS

CITY           SKY/WX    TMP DP  RH WIND       PRES   REMARKS
ALTON          MOSUNNY   23  14  68 NW6       30.63F WCI  16
BELLEVILLE     MOSUNNY   28  14  57 NW9       30.63F WCI  19
CAHOKIA*       MOSUNNY   26  12  55 NW6       30.65S WCI  19
SPARTA*        MOSUNNY   26  14  61 W5        30.65S WCI  20
$$

ILZ064>066-069>071-074>076-080>082-084>086-088>090-092>094-091800-
SOUTH-CENTRAL ILLINOIS

CITY           SKY/WX    TMP DP  RH WIND       PRES   REMARKS
CARBONDALE     MOSUNNY   27  16  63 W5        30.65F WCI  22
CAIRO*         SUNNY     28  15  59 S3        30.67F
EFFINGHAM*     CLOUDY    25  17  72 NW7       30.62F WCI  17
MARION         MOSUNNY   28  16  59 W3        30.65F
CENTRALIA*     PTSUNNY   28  17  64 NW5       30.61F WCI  22
SALEM*         PTSUNNY   27  14  57 NW6       30.62F WCI  21
METROPOLIS*    SUNNY     28  15  57 CALM      30.66F
$$

ILZ067-068-072-073-078-083-087-091-091800-
SOUTHEAST ILLINOIS

CITY           SKY/WX    TMP DP  RH WIND       PRES   REMARKS
LAWRENCEVILLE  CLOUDY    26  14  60 N6        30.62F WCI  19
FLORA*         PTSUNNY   27  15  59 NW8       30.62F WCI  19
FAIRFIELD*     PTSUNNY   27  15  60 NW3       30.61F
HARRISBURG*    MOSUNNY   28  15  60 CALM      30.65F
ROBINSON*      FLURRIES  24  15  67 NW5       30.62F WCI  19
CARMI*         MOSUNNY   27  16  62 NW3       30.62F
$$

ABBREVIATIONS USED IN REMARKS
   TC - TEMPERATURE IN CELSIUS
  WCI - WIND CHILL INDEX
   HX - HEAT INDEX
  VSB - VISIBILITY
$$




USA.gov is the U.S. government's official web portal to all federal, state and local government web resources and services.